Regional Weather Roundup
Issued by NWS

Home | Current Version | Previous Version | Graphics & Text | Print | Product List | Glossary On
Versions: 1 2 3 4 5 6 7 8 9 10 11 12 13 14 15 16 17 18 19 20 21 22 23 24 25 26 27 28 29 30 31 32 33 34 35 36 37 38 39 40 41 42 43 44 45 46 47 48 49 50
000
ASUS43 KDMX 160401
RWRIA

WEATHER ROUNDUP FOR IOWA
NATIONAL WEATHER SERVICE DES MOINES IA
1100 PM CDT TUE AUG 15 2017

NOTE: "FAIR" INDICATES FEW OR NO CLOUDS BELOW 12,000 FEET WITH NO
SIGNIFICANT WEATHER AND/OR OBSTRUCTIONS TO VISIBILITY.

* - THESE STATIONS ARE NOT NWS STATIONS...THUS NOT UNDER NWS
QUALITY CONTROL.  THEY ALSO DO NOT REPORT WEATHER SUCH
AS PRECIPITATION OR FOG.

IAZ001>003-012>014-020>022-031>034-043>046-160500-
   NORTHWEST IOWA

CITY           SKY/WX    TMP DP  RH WIND       PRES   REMARKS
CARROLL *      CLOUDY    70  70 100 SE10      29.89F FOG
CHEROKEE *     CLOUDY    67  66  96 SE3       29.83F
DENISON *      CLOUDY    66  64  94 SE8       29.86F
LE MARS *      CLOUDY    68  66  94 E3        29.83F
ORANGE CITY *  CLOUDY    66  66 100 CALM      29.84F FOG
SHELDON *      CLOUDY    66  64  94 E7        29.84F
SIOUX CITY     CLOUDY    67  67 100 SE6       29.81F
SPENCER        CLOUDY    67  65  93 SE14      29.88F
STORM LAKE *   CLOUDY    66  64  94 SE8       29.86F
$$

IAZ055>058-069>071-079>083-090>094-160500-
   SOUTHWEST IOWA

CITY           SKY/WX    TMP DP  RH WIND       PRES   REMARKS
ATLANTIC *     CLOUDY    72  68  88 NE9       29.91F
AUDUBON *      MOCLDY    70  66  88 E6        29.92F FOG
CLARINDA *       N/A     75  70  83 SE5       29.90S
COUNCIL BLFS * PTCLDY    70  68  94 E7        29.90R
CRESTON *      CLOUDY    70  68  94 E8        29.93S
HARLAN  *      CLOUDY    68  66  94 E5        29.92F
LAMONI         PTCLDY    74  69  85 NE5       29.91R
RED OAK *      MOCLDY    73  70  88 NE13G20   29.90S
SHENANDOAH *   PTCLDY    73  70  88 NE8       29.88R
$$

IAZ047>049-059>061-072>074-084-160500-
   CENTRAL IOWA

CITY           SKY/WX    TMP DP  RH WIND       PRES   REMARKS
AMES           PTCLDY    66  66 100 E5        29.92S FOG
ANKENY *       PTCLDY    66  66 100 NE3       29.93S FOG
BOONE *        PTCLDY    66  66 100 SE8       29.92S FOG
CHARITON *     CLOUDY    72  70  94 E7        29.92R
DES MOINES     CLOUDY    70  68  93 E7        29.92R
GRINNELL*      CLEAR     66  65  94 E7        29.95R
KNOXVILLE *    CLEAR     70  68  94 E8        29.91R
MARSHALLTOWN   CLOUDY    66  65  96 E10       29.92F
NEWTON *       CLEAR     68  66  94 E8        29.93R
PELLA *        CLEAR     69  67  93 E5        29.93R
PERRY *        CLOUDY    69  69  98 E5        29.92S FOG
$$

IAZ004>006-015-016-023>025-035-036-160500-
   NORTH CENTRAL IOWA

CITY           SKY/WX    TMP DP  RH WIND       PRES   REMARKS
ALGONA *       CLOUDY    66  66 100 VRB6      29.91S
CLARION *      CLOUDY    66  66 100 E7        29.92S
ESTHERVILLE    CLOUDY    65  65 100 SE9       29.90F
FORT DODGE *   CLOUDY    66  64  94 S9        29.91F
MASON CITY     CLOUDY    65  63  93 SE8       29.95S
FOREST CITY *    N/A     64  64 100 SE7       29.92F
WEBSTER CITY * CLOUDY    66  66 100 S9        29.90S
IOWA FALLS *     N/A     66  65  94 SE8       29.94S
$$

IAZ007>011-017>019-026>030-037>042-050>054-066-160500-
   NORTHEAST IOWA

CITY           SKY/WX    TMP DP  RH WIND       PRES   REMARKS
CEDAR RAPIDS   CLEAR     66  66 100 E8        29.94F
CHARLES CITY * CLOUDY    66  66 100 SE6       29.96R
CLINTON *      PTCLDY    67  66  97 E9        29.97R
DECORAH *      MOCLDY    66  63  88 SE5       29.97R
DUBUQUE        CLOUDY    66  63  90 NE6       29.98S
MONTICELLO *   CLEAR     64  63  94 CALM      29.96S
OELWEIN *      CLOUDY    66  66 100 E8        29.96F
WATERLOO       CLOUDY    67  62  84 E10       29.92F
$$

IAZ064-065-067-068-078-160500-
   EAST CENTRAL IOWA

CITY           SKY/WX    TMP DP  RH WIND       PRES   REMARKS
DAVENPORT      CLEAR     68  65  90 E7        29.98R
IOWA CITY      CLEAR     72  66  81 NE7       29.95S
MUSCATINE *    CLOUDY    72  68  88 CALM      29.94S
QUAD CITIES    CLEAR     73  66  78 E8        29.95R
$$

IAZ062-063-075>077-085>089-095>099-160500-
   SOUTHEAST IOWA

CITY           SKY/WX    TMP DP  RH WIND       PRES   REMARKS
BURLINGTON     CLOUDY    76  70  82 NE9       29.93R
FAIRFIELD *    MOCLDY    72  68  88 E8        29.93R
FORT MADISON * PTCLDY    73  72  94 E5        29.95R
KEOKUK *       CLEAR     73  72  94 E5        29.92R
OSKALOOSA *      N/A     69  68  95 E7        29.92S
OTTUMWA        CLEAR     72  70  93 E10       29.92R
WASHINGTON *   CLOUDY    70  70 100 E7        29.95R
$$

ABBREVIATIONS USED IN REMARKS
   TC - TEMPERATURES IN CELSIUS
  WCI - WIND CHILL INDEX
   HX - HEAT INDEX
  VSB - VISIBILITY
$$





USA.gov is the U.S. government's official web portal to all federal, state and local government web resources and services.